Voltar ao catálogo

CZ-6A DEB

AtivoPO
NORAD 60779·DEBRIS·🇨🇳 China

Lançado Aug 6, 2024 de Taiyuan Satellite Launch Center

Loading…

Próximas Passagens (próximas 24 horas)

TLE

AtualizadoSource: Space-Track

Época: Sep 14, 2026, 08:24 UTC

1 60779U 24140FE  26257.35041793  .00009145  00000-0  11080-2 0  9995
2 60779  88.9668 254.6485 0071078 253.7558 105.5839 14.81730214111722

Acompanhe CZ-6A DEB em tempo real com AllMySat

Download on the App Store